Total_Precipitation_Accumulation
0.00 0.00 0.00 0.00 0.00 0.00 0.01 0.02 0.04 0.03 0.02 0.01 0.01 0.01 0.02 0.03 0.04 0.04 0.03 0.06 0.05 0.06 0.08 0.11 0.14 0.18 0.22 0.21 0.23 0.27 0.37 0.54 0.69 0.79 0.64 0.43 0.30 0.25 0.21 0.24 0.32 0.39 0.46 0.52
0.00 0.00 0.00 0.00 0.00 0.00 0.01 0.01 0.02 0.02 0.03 0.02 0.02 0.03 0.03 0.03 0.04 0.03 0.03 0.04 0.05 0.06 0.10 0.12 0.13 0.14 0.14 0.16 0.18 0.23 0.29 0.35 0.46 0.50 0.41 0.26 0.13 0.08 0.10 0.16 0.22 0.27 0.30 0.34
0.00 0.01 0.00 0.01 0.01 0.01 0.01 0.02 0.04 0.05 0.05 0.04 0.04 0.05 0.05 0.05 0.04 0.03 0.02 0.02 0.01 0.02 0.03 0.04 0.06 0.08 0.08 0.10 0.16 0.26 0.33 0.32 0.37 0.40 0.33 0.21 0.09 0.06 0.07 0.10 0.14 0.16 0.15 0.15
0.00 0.00 0.01 0.01 0.00 0.01 0.02 0.03 0.05 0.06 0.06 0.06 0.07 0.06 0.06 0.06 0.04 0.03 0.02 0.01 0.01 0.01 0.02 0.02 0.03 0.03 0.04 0.07 0.15 0.24 0.28 0.28 0.35 0.40 0.35 0.25 0.17 0.13 0.10 0.11 0.12 0.13 0.12 0.08
0.00 0.00 0.01 0.01 0.03 0.05 0.05 0.06 0.06 0.07 0.08 0.08 0.07 0.05 0.04 0.03 0.02 0.01 0.01 0.01 0.02 0.02 0.03 0.03 0.03 0.04 0.04 0.07 0.14 0.20 0.24 0.28 0.31 0.37 0.36 0.28 0.24 0.22 0.19 0.16 0.16 0.16 0.14 0.10
0.01 0.02 0.04 0.03 0.05 0.06 0.07 0.15 0.13 0.09 0.07 0.04 0.03 0.05 0.02 0.01 0.01 0.01 0.01 0.01 0.02 0.02 0.03 0.03 0.04 0.07 0.10 0.11 0.14 0.20 0.23 0.26 0.30 0.36 0.38 0.33 0.30 0.28 0.25 0.25 0.23 0.21 0.18 0.15
0.03 0.06 0.06 0.03 0.04 0.04 0.12 0.19 0.07 0.03 0.02 0.02 0.05 0.08 0.03 0.01 0.01 0.01 0.01 0.02 0.03 0.04 0.04 0.05 0.08 0.12 0.14 0.13 0.15 0.17 0.20 0.23 0.30 0.40 0.42 0.41 0.40 0.39 0.34 0.31 0.30 0.30 0.28 0.23
0.05 0.09 0.11 0.04 0.03 0.05 0.07 0.04 0.03 0.03 0.03 0.04 0.03 0.02 0.02 0.01 0.01 0.01 0.02 0.03 0.04 0.05 0.07 0.10 0.13 0.17 0.19 0.19 0.19 0.19 0.20 0.25 0.35 0.39 0.35 0.35 0.42 0.46 0.43 0.41 0.39 0.40 0.39 0.34
0.07 0.09 0.04 0.02 0.02 0.03 0.03 0.05 0.04 0.04 0.02 0.03 0.03 0.03 0.03 0.03 0.02 0.03 0.03 0.04 0.06 0.09 0.13 0.16 0.22 0.27 0.31 0.31 0.29 0.25 0.25 0.29 0.35 0.37 0.40 0.45 0.47 0.48 0.49 0.49 0.47 0.44 0.42 0.39
0.06 0.04 0.02 0.02 0.02 0.02 0.02 0.03 0.02 0.02 0.02 0.03 0.05 0.05 0.05 0.05 0.05 0.04 0.05 0.06 0.07 0.10 0.16 0.23 0.32 0.40 0.43 0.41 0.36 0.31 0.28 0.29 0.31 0.36 0.39 0.48 0.56 0.57 0.54 0.53 0.52 0.50 0.45 0.39
0.06 0.04 0.03 0.03 0.03 0.02 0.01 0.01 0.01 0.02 0.02 0.04 0.06 0.07 0.06 0.06 0.06 0.06 0.05 0.05 0.06 0.11 0.19 0.27 0.39 0.48 0.47 0.43 0.41 0.39 0.36 0.32 0.31 0.33 0.39 0.50 0.58 0.65 0.63 0.59 0.50 0.49 0.47 0.41
0.07 0.07 0.08 0.07 0.04 0.02 0.02 0.02 0.03 0.03 0.03 0.03 0.04 0.06 0.06 0.06 0.07 0.07 0.06 0.06 0.09 0.14 0.20 0.24 0.34 0.47 0.50 0.49 0.48 0.47 0.46 0.44 0.40 0.39 0.45 0.50 0.58 0.58 0.53 0.53 0.45 0.42 0.40 0.36
0.06 0.05 0.06 0.06 0.05 0.04 0.05 0.04 0.03 0.03 0.03 0.04 0.04 0.05 0.06 0.06 0.06 0.05 0.05 0.06 0.09 0.13 0.17 0.19 0.24 0.34 0.43 0.52 0.57 0.58 0.55 0.55 0.53 0.46 0.48 0.53 0.58 0.60 0.56 0.50 0.48 0.43 0.35 0.28
0.03 0.04 0.05 0.05 0.04 0.03 0.03 0.03 0.02 0.02 0.03 0.03 0.03 0.04 0.04 0.05 0.05 0.06 0.06 0.06 0.07 0.10 0.13 0.18 0.24 0.30 0.37 0.48 0.57 0.59 0.60 0.59 0.57 0.54 0.49 0.53 0.59 0.59 0.61 0.60 0.54 0.48 0.39 0.29
0.02 0.04 0.05 0.04 0.02 0.02 0.03 0.03 0.02 0.03 0.03 0.04 0.04 0.04 0.05 0.05 0.06 0.07 0.07 0.07 0.09 0.11 0.14 0.19 0.25 0.32 0.43 0.52 0.57 0.57 0.57 0.56 0.55 0.54 0.53 0.52 0.58 0.60 0.57 0.61 0.57 0.52 0.42 0.32
0.01 0.01 0.02 0.02 0.02 0.03 0.04 0.04 0.04 0.04 0.05 0.05 0.05 0.05 0.06 0.05 0.06 0.07 0.08 0.10 0.14 0.16 0.18 0.23 0.28 0.34 0.47 0.58 0.61 0.58 0.56 0.52 0.51 0.52 0.51 0.53 0.57 0.59 0.54 0.56 0.55 0.52 0.40 0.28
0.03 0.02 0.01 0.02 0.03 0.05 0.06 0.07 0.06 0.06 0.06 0.06 0.06 0.06 0.06 0.07 0.09 0.11 0.13 0.15 0.19 0.21 0.24 0.29 0.32 0.36 0.49 0.59 0.64 0.62 0.57 0.51 0.47 0.47 0.46 0.51 0.56 0.56 0.51 0.49 0.48 0.45 0.33 0.19
0.03 0.04 0.04 0.05 0.06 0.08 0.09 0.10 0.10 0.10 0.11 0.11 0.12 0.12 0.14 0.18 0.23 0.25 0.26 0.28 0.30 0.28 0.27 0.31 0.36 0.41 0.47 0.56 0.62 0.63 0.62 0.56 0.45 0.39 0.40 0.46 0.53 0.52 0.49 0.43 0.41 0.38 0.28 0.16
0.03 0.04 0.06 0.11 0.16 0.17 0.17 0.17 0.18 0.18 0.19 0.19 0.19 0.21 0.25 0.30 0.36 0.40 0.42 0.45 0.47 0.44 0.38 0.37 0.36 0.37 0.42 0.48 0.57 0.60 0.57 0.54 0.46 0.34 0.33 0.41 0.46 0.47 0.45 0.38 0.35 0.31 0.22 0.14
0.03 0.03 0.05 0.15 0.27 0.32 0.32 0.31 0.31 0.30 0.28 0.26 0.28 0.32 0.37 0.40 0.44 0.51 0.55 0.54 0.52 0.54 0.51 0.45 0.39 0.34 0.36 0.44 0.50 0.52 0.47 0.47 0.45 0.32 0.29 0.37 0.40 0.44 0.41 0.32 0.28 0.21 0.14 0.09
0.01 0.02 0.03 0.06 0.13 0.21 0.26 0.27 0.28 0.31 0.32 0.37 0.46 0.55 0.61 0.58 0.57 0.65 0.72 0.63 0.52 0.56 0.53 0.43 0.35 0.31 0.32 0.43 0.48 0.48 0.43 0.40 0.42 0.34 0.28 0.33 0.37 0.40 0.37 0.28 0.20 0.13 0.09 0.06
0.02 0.03 0.04 0.06 0.07 0.09 0.10 0.13 0.19 0.29 0.36 0.42 0.49 0.60 0.73 0.78 0.79 0.78 0.69 0.65 0.60 0.59 0.51 0.41 0.33 0.29 0.27 0.34 0.44 0.43 0.41 0.39 0.41 0.37 0.29 0.29 0.32 0.32 0.30 0.21 0.12 0.08 0.05 0.04
0.01 0.02 0.02 0.03 0.04 0.06 0.08 0.10 0.16 0.26 0.36 0.43 0.52 0.70 0.84 0.87 0.92 1.02 0.84 0.60 0.56 0.56 0.50 0.40 0.34 0.29 0.24 0.23 0.31 0.35 0.36 0.38 0.38 0.36 0.29 0.25 0.24 0.23 0.20 0.15 0.09 0.05 0.03 0.03
0.01 0.02 0.02 0.02 0.04 0.06 0.09 0.13 0.17 0.25 0.34 0.40 0.48 0.65 0.85 0.97 0.92 0.81 0.73 0.59 0.50 0.45 0.44 0.38 0.29 0.25 0.21 0.17 0.20 0.26 0.30 0.33 0.31 0.29 0.25 0.20 0.19 0.18 0.13 0.10 0.06 0.03 0.02 0.01
0.02 0.02 0.03 0.04 0.09 0.15 0.23 0.29 0.33 0.37 0.45 0.48 0.48 0.55 0.65 0.85 0.97 0.78 0.56 0.49 0.45 0.38 0.38 0.36 0.28 0.23 0.19 0.14 0.14 0.18 0.23 0.26 0.24 0.23 0.20 0.17 0.15 0.13 0.09 0.06 0.03 0.02 0.01 0.01
0.03 0.03 0.04 0.07 0.14 0.25 0.38 0.50 0.59 0.63 0.71 0.76 0.68 0.61 0.60 0.64 0.70 0.65 0.51 0.43 0.40 0.36 0.32 0.30 0.27 0.22 0.18 0.14 0.11 0.14 0.19 0.22 0.21 0.18 0.14 0.12 0.11 0.09 0.06 0.04 0.02 0.01 0.00 0.00
0.05 0.05 0.06 0.10 0.18 0.30 0.46 0.61 0.74 0.82 0.88 0.95 0.89 0.73 0.63 0.59 0.60 0.58 0.51 0.45 0.41 0.39 0.36 0.32 0.29 0.25 0.22 0.17 0.14 0.14 0.16 0.17 0.16 0.13 0.10 0.09 0.08 0.06 0.04 0.02 0.01 0.01 0.00 0.00